Location: Nairn
(57.5833°N, 3.8667°W)
Time: 02:34:04
(UTC+00:00)

Helios 1A - Pass Details

Date: 07 August 2020
Orbit: 588 x 599 km, 98.2° (Epoch: 06 September)

Event Time Altitude Azimuth Distance (km) Brightness Sun altitude
Exits shadow 01:07:51 20° 232° (SW) 1,411 4.5 -15.5°
Maximum altitude 01:09:31 25° 267° (W) 1,217 4.4 -15.4°
Drops below altitude 10° 01:13:03 10° 324° (NW) 1,954 6.2 -15.3°
Sets 01:15:34 0° 338° (NNW) 2,863 7.4 -15.2°
